Viroqua, WI

4:39 PM CST on November 22, 2019 (GMT -0600)
Viroqua

Weather History for KY51 - October, 2019

Change the Weather History Date:

Tuesday, October 22, 2019

  Actual Average (KCMY) Record (KCMY)
Temperature  
Mean Temperature 42 °F -  
Max Temperature 45 °F 58 °F 76 °F (1963)
Min Temperature 40 °F 35 °F 18 °F (2013)
Degree Days  
Heating Degree Days 22    
Moisture  
Dew Point 39 °F    
Average Humidity 89    
Maximum Humidity 100    
Minimum Humidity 63    
Precipitation  
Precipitation 0.03 in - - ()
Sea Level Pressure  
Sea Level Pressure 29.44 in    
Wind  
Wind Speed 14 mph ()    
Max Wind Speed 21 mph    
Max Gust Speed 33 mph    
Visibility 8.3 miles    
Events      
Averages and records for this station are not official NWS values.
T = Trace of Precipitation, MM = Missing Value Source: Averaged Metar Reports

Daily Weather History Graph

Daily Weather History Graph

Search for Another Location

Airport or City:

Astronomy

Oct. 22, 2019 Rise Set
Actual Time 7:26 AM CDT 6:09 PM CDT
Civil Twilight 6:56 AM CDT 6:38 PM CDT
Nautical Twilight 6:23 AM CDT 7:11 PM CDT
Astronomical Twilight 5:50 AM CDT 7:44 PM CDT
Moon 12:20 AM CDT 3:33 PM CDT
Length of Visible Light 11h 41m
Length of Day
10h 43m
Last Quarter, 37% of the Moon is Illuminated
Oct 22
Last Quarter
Oct 27
New
Nov 4
First Quarter
Nov 12
Full
Nov 19
Last Quarter

Hourly Weather History & Observations

Time (CDT) Temp. Windchill Dew Point Humidity Pressure Visibility Wind Dir Wind Speed Gust Speed Precip Events Conditions
12:15 AM 43.5 °F 36.1 °F 42.1 °F 95% 29.23 in 10.0 mi SSW 16.1 mph 21.9 mph N/A   Overcast
12:35 AM 42.8 °F 34.8 °F 41.9 °F 97% 29.23 in 5.0 mi SSW 17.3 mph 29.9 mph N/A   Overcast
12:55 AM 41.9 °F 34.6 °F 41.4 °F 98% 29.22 in 7.0 mi SSW 13.8 mph 21.9 mph 0.01 in   Overcast
1:15 AM 41.9 °F 34.0 °F 41.5 °F 99% 29.21 in 7.0 mi SSW 16.1 mph 20.7 mph N/A   Overcast
1:35 AM 41.7 °F 33.7 °F 41.4 °F 99% 29.21 in 10.0 mi SW 16.1 mph 28.8 mph N/A   Overcast
1:55 AM 41.7 °F 34.8 °F 41.7 °F 100% 29.20 in 4.0 mi SSW 12.7 mph 18.4 mph 0.01 in   Overcast
2:15 AM 41.9 °F 34.6 °F 41.9 °F 100% 29.19 in 5.0 mi SSW 13.8 mph 18.4 mph N/A   Overcast
2:35 AM 41.5 °F 33.8 °F 41.5 °F 100% 29.19 in 4.0 mi SW 15.0 mph 20.7 mph N/A   Overcast
2:55 AM 41.4 °F 33.6 °F 41.4 °F 100% 29.19 in 4.0 mi SW 15.0 mph 21.9 mph 0.01 in   Overcast
3:15 AM 40.6 °F 33.0 °F 40.6 °F 100% 29.19 in 2.0 mi SW 13.8 mph 24.2 mph N/A   Overcast
3:35 AM 40.6 °F 32.3 °F 40.6 °F 100% 29.19 in 2.0 mi SW 16.1 mph 26.5 mph N/A   Overcast
3:55 AM 41.0 °F 32.5 °F 41.0 °F 100% 29.20 in 2.0 mi WSW 17.3 mph 23.0 mph N/A   Overcast
4:15 AM 41.4 °F 34.0 °F 41.4 °F 100% 29.21 in 5.0 mi WSW 13.8 mph 23.0 mph N/A   Overcast
4:35 AM 41.9 °F 35.4 °F 41.9 °F 100% 29.22 in 7.0 mi West 11.5 mph - N/A   Overcast
4:55 AM 42.3 °F 35.5 °F 42.3 °F 100% 29.24 in 10.0 mi West 12.7 mph 18.4 mph N/A   Overcast
5:15 AM 42.4 °F 35.7 °F 42.4 °F 100% 29.26 in 1.8 mi West 12.7 mph 21.9 mph N/A   Overcast
5:35 AM 42.4 °F 35.7 °F 42.4 °F 100% 29.27 in 4.0 mi West 12.7 mph - N/A   Overcast
5:55 AM 42.6 °F 35.9 °F 42.6 °F 100% 29.28 in 10.0 mi West 12.7 mph 23.0 mph N/A   Overcast
6:15 AM 42.1 °F 34.2 °F 42.1 °F 100% 29.29 in 4.0 mi West 16.1 mph 25.3 mph N/A   Overcast
6:35 AM 41.9 °F 35.0 °F 41.9 °F 100% 29.31 in 7.0 mi West 12.7 mph 20.7 mph N/A   Overcast
6:55 AM 41.9 °F 34.0 °F 41.4 °F 98% 29.32 in 10.0 mi West 16.1 mph 25.3 mph N/A   Overcast
7:15 AM 41.9 °F 34.6 °F 40.8 °F 96% 29.33 in 10.0 mi West 13.8 mph 24.2 mph N/A   Overcast
7:35 AM 41.5 °F 33.8 °F 41.0 °F 98% 29.34 in 10.0 mi West 15.0 mph 23.0 mph N/A   Overcast
7:55 AM 41.4 °F 33.3 °F 41.4 °F 100% 29.35 in 7.0 mi West 16.1 mph 20.7 mph N/A   Overcast
8:15 AM 41.5 °F 33.5 °F 41.5 °F 100% 29.36 in 2.5 mi West 16.1 mph 28.8 mph N/A   Overcast
8:35 AM 41.5 °F 33.5 °F 41.5 °F 100% 29.36 in 4.0 mi West 16.1 mph 28.8 mph N/A   Overcast
8:55 AM 41.7 °F 34.1 °F 41.4 °F 99% 29.38 in 10.0 mi West 15.0 mph 27.6 mph N/A   Overcast
9:15 AM 41.7 °F 34.1 °F 41.2 °F 98% 29.39 in 10.0 mi West 15.0 mph 31.1 mph N/A   Overcast
9:35 AM 41.4 °F 33.6 °F 40.8 °F 98% 29.41 in 7.0 mi West 15.0 mph 25.3 mph N/A   Overcast
9:55 AM 41.4 °F 32.7 °F 40.5 °F 97% 29.42 in 10.0 mi West 18.4 mph 27.6 mph N/A   Overcast
10:15 AM 41.4 °F 33.3 °F 40.5 °F 97% 29.43 in 10.0 mi West 16.1 mph 20.7 mph N/A   Overcast
10:35 AM 41.4 °F 33.0 °F 39.9 °F 95% 29.44 in 10.0 mi West 17.3 mph 27.6 mph N/A   Overcast
10:55 AM 41.4 °F 33.3 °F 39.7 °F 94% 29.45 in 10.0 mi West 16.1 mph 24.2 mph N/A   Overcast
11:15 AM 41.4 °F 33.3 °F 39.6 °F 93% 29.46 in 10.0 mi West 16.1 mph 27.6 mph N/A   Overcast
11:35 AM 41.4 °F 32.4 °F 39.6 °F 93% 29.47 in 10.0 mi West 19.6 mph 29.9 mph N/A   Overcast
11:55 AM 41.2 °F 33.0 °F 39.2 °F 93% 29.48 in 10.0 mi West 16.1 mph 32.2 mph N/A   Overcast
12:35 PM 41.7 °F 34.1 °F 38.7 °F 89% 29.49 in 10.0 mi West 15.0 mph 26.5 mph N/A   Overcast
12:55 PM 41.5 °F 32.6 °F 38.3 °F 88% 29.50 in 10.0 mi West 19.6 mph 33.4 mph N/A   Overcast
1:15 PM 41.2 °F 33.4 °F 38.7 °F 91% 29.51 in 10.0 mi West 15.0 mph 33.4 mph N/A   Overcast
1:35 PM 41.4 °F 33.6 °F 38.7 °F 90% 29.51 in 10.0 mi West 15.0 mph 24.2 mph N/A   Overcast
1:55 PM 41.0 °F 32.5 °F 39.0 °F 93% 29.52 in 10.0 mi West 17.3 mph 25.3 mph N/A   Overcast
2:15 PM 41.4 °F 32.1 °F 38.3 °F 89% 29.53 in 10.0 mi West 20.7 mph 27.6 mph N/A   Overcast
2:35 PM 41.5 °F 33.8 °F 38.1 °F 88% 29.54 in 10.0 mi West 15.0 mph 31.1 mph N/A   Overcast
2:55 PM 41.0 °F 34.3 °F 38.5 °F 91% 29.54 in 10.0 mi West 11.5 mph 23.0 mph N/A   Overcast
3:15 PM 41.0 °F 33.1 °F 38.3 °F 90% 29.55 in 10.0 mi West 15.0 mph 25.3 mph N/A   Overcast
3:55 PM 41.9 °F 35.4 °F 38.5 °F 88% 29.57 in 10.0 mi West 11.5 mph 19.6 mph N/A   Overcast
4:15 PM 42.3 °F 36.8 °F 38.3 °F 86% 29.58 in 10.0 mi West 9.2 mph 17.3 mph N/A   Overcast
4:35 PM 42.8 °F 36.2 °F 38.3 °F 84% 29.59 in 10.0 mi West 12.7 mph 24.2 mph N/A   Overcast
4:55 PM 43.2 °F 35.9 °F 38.3 °F 83% 29.59 in 10.0 mi West 15.0 mph 23.0 mph N/A   Overcast
5:15 PM 43.3 °F 35.8 °F 38.5 °F 83% 29.60 in 10.0 mi West 16.1 mph 24.2 mph N/A   Overcast
5:55 PM 44.2 °F 37.3 °F 37.9 °F 79% 29.61 in 10.0 mi West 15.0 mph 24.2 mph N/A   Overcast
6:15 PM 44.6 °F 37.4 °F 37.4 °F 76% 29.62 in 10.0 mi West 16.1 mph 27.6 mph N/A   Overcast
6:35 PM 44.6 °F 37.8 °F 37.6 °F 76% 29.63 in 10.0 mi West 15.0 mph 26.5 mph N/A   Overcast
6:55 PM 45.0 °F 38.2 °F 37.0 °F 74% 29.64 in 10.0 mi West 15.0 mph 23.0 mph N/A   Overcast
7:15 PM 45.0 °F 37.4 °F 36.5 °F 72% 29.64 in 10.0 mi West 18.4 mph 26.5 mph N/A   Overcast
7:35 PM 45.0 °F 37.4 °F 36.3 °F 72% 29.65 in 10.0 mi West 18.4 mph 25.3 mph N/A   Overcast
7:55 PM 45.0 °F 37.9 °F 34.5 °F 67% 29.66 in 10.0 mi West 16.1 mph 27.6 mph N/A   Overcast
8:15 PM 45.0 °F 39.3 °F 33.8 °F 65% 29.66 in 10.0 mi West 11.5 mph 27.6 mph N/A   Overcast
8:35 PM 44.8 °F 38.7 °F 33.4 °F 64% 29.67 in 10.0 mi West 12.7 mph 25.3 mph N/A   Overcast
8:55 PM 44.6 °F 38.4 °F 33.4 °F 65% 29.67 in 10.0 mi West 12.7 mph 27.6 mph N/A   Overcast
9:15 PM 44.4 °F 37.2 °F 33.1 °F 64% 29.68 in 10.0 mi West 16.1 mph 26.5 mph N/A   Overcast
9:35 PM 44.2 °F 37.0 °F 32.7 °F 64% 29.68 in 10.0 mi West 16.1 mph 23.0 mph N/A   Overcast
10:15 PM 44.1 °F 37.7 °F 32.2 °F 63% 29.69 in 10.0 mi West 12.7 mph 32.2 mph N/A   Overcast
10:55 PM 43.7 °F 36.3 °F 32.4 °F 64% 29.70 in 10.0 mi West 16.1 mph 25.3 mph N/A   Overcast
11:35 PM 43.0 °F 36.0 °F 32.7 °F 67% 29.70 in 10.0 mi West 13.8 mph 24.2 mph N/A   Overcast